DELTA 1 DEB, 42652

Orbit data source: Space-Track

DELTA 1 DEB, 42652 is space debris in LEO originally from a launch on Thu, 12 Jun 1975 UTC launched from the Air Force Western Test Range (AFWTR). Debris objects in space refer to the collection of defunct objects orbiting the Earth. Examples of debris include non-operational satellites, rocket bodies, and fragments generated from explosions, collisions, or faulty payload assembly.

Loading next visibility...
DELTA 1 DEB details
Identifier
42652, 1975-052MM
Orbit
LEO
Last TLE update20 hours ago
Origin
Flag of USGSFC (US)
ManufacturerUnknown
MissionSpacecraft
Bus & MotorUnknown
MassUnknown
Launch date (UTC)
1975-06-12 (49 years ago)
Launch vehicleUnknown
Launch site
Air Force Western Test Range (AFWTR)
Object type
Payload
Rocket body
Debris
Shape & HBRUnknown
Radar Cross SectionSmall (<0.1 m²)

Expand to show TLE details & history

TLE from 20 hours ago
0 DELTA 1 DEB
1 42652U 75052MM  24339.26965572  .00000452  00000-0  99845-3 0  9990
2 42652  99.7085 143.1997 0072946 238.9231 246.3322 13.32823549536656
Epoch: 2024-12-04T06:28Z
Definitive object data (Epoch: 2024-12-04T06:28:18.254Z)
Latitude54.42732°
Longitude166.32472°
Altitude1,167.347 km
Speed7.264 km/s
True Right ascension22h 27m 52s
True Declination54° 16' 24"
Sunlit
Object was in daylight at TLE epoch
Visualization TLE readout
Latitude-46.67152°
Longitude142.96184°
Altitude1,099.986 km
Speed7.328 km/s
Apparent Right ascension16h 59m 45s
Apparent Declination-62° 56' 18"
Sunlit
Object is in daylight
Visualization observer readout
Local Sidereal Time00:45:10
Azimuth216.376° SW
Elevation-46.578°
Doppler factor1
Orbital elements
Apogee altitude1,188.251 km
Perigee altitude1,078.662 km
Semi-major axis7,511.594 km
Eccentricity0.0072946
Inclination99.7085°
RAAN143.1997°
Arg. of periapsis238.9231°
True anomaly245.56942°
Mean anomaly246.3322°
Eccentric anomaly245.95053°
Mean motion3.33384 °/min
BSTAR0.00099845
Orbital period107.98 mins
Loading maneuver chart data...
Loading historical data...
Loading historical data...
Loading historical data...
Loading historical data...
Loading historical data...
Loading historical data...
Loading historical data...

DELTA 1 DEB Visibility forecast

Observer location: undefined°, undefined

Span
Click to sort rows by Start time (UTC) header in descending order
Start Az.
Max El. time (UTC)
Max El. Az.
Max El.
End time (UTC)
End Az.
6 mins2024-12-05 09:04:02.425Z81.705° E2024-12-05 09:07:02.425Z56.002° ENE13.949°2024-12-05 09:10:02.425Z29.415° NE
12 mins2024-12-05 10:47:02.425Z153.755° SSE2024-12-05 10:53:02.425Z40.352° NE43.534°2024-12-05 10:59:02.425Z349.448° N
8 mins2024-12-05 12:36:02.425Z233.982° WSW2024-12-05 12:40:02.425Z273.284° WNW18.415°2024-12-05 12:44:02.425Z309.584° NW
11 mins2024-12-05 23:54:02.425Z20.482° NNE2024-12-05 23:59:02.425Z92.718° ESE43.959°2024-12-06 00:05:02.425Z188.279° SSW
8 mins2024-12-06 01:41:02.425Z340.195° N2024-12-06 01:45:02.425Z300.271° NW19.652°2024-12-06 01:49:02.425Z261.278° W
|